This demonstration page uses our WeatherBlox Daily Observations layout. Learn more.

Left ArrowRight Arrow

44.31136, -96.79839

Hourly Observations for December 27, 2018

Temp ( °F °C ) Dew Point ( °F °C ) Humidity (%) Winds ( mph kmh ) Pressure ( in mb ) Visibility ( mi km ) Precip ( " mm )
12:29 am 00:29 Cloudy with Light Rain 34 1 32 0 93 93 SE 9 15 29.83 1010 4 6 0.01 0.25
12:56 am 00:56 Cloudy with Light Rain 33 0.6 32 0 96 96 SE 10 17 29.86 1011 6 10 0.01 0.25
1:56 am 01:56 Cloudy with Light Rain 33 0.6 32 0 96 96 SE 10 17 29.83 1010 8 13 0.02 0.51
2:56 am 02:56 Cloudy with Light Snow 33 0.6 32 0 96 96 S 5 7 29.83 1010 3 5 0.01 0.25
3:13 am 03:13 Cloudy with Light Snow 34 1 32 0 93 93 Calm 29.80 1009 3 4 0.02 0.51
4:31 am 04:31 Cloudy with Light Wintry Mix 32 0 30 -1 93 93 NNE 3 6 29.74 1007 1 2 0.00 0.03
4:56 am 04:56 Cloudy with Light Snow 32 0 31 -0.6 96 96 NNE 3 6 29.73 1007 1 2 0.01 0.25
5:03 am 05:03 Cloudy with Light Wintry Mix 32 0 30 -1 93 93 NNE 3 6 29.74 1007 2 3 0.00 0.03
5:56 am 05:56 Cloudy with Light Snow 32 0 32 0 100 100 NNE 5 7 29.73 1007 1 2 0.01 0.25
6:19 am 06:19 Cloudy with Light Snow 32 0 32 0 100 100 NNE 5 7 29.74 1007 2 3 0.00 0.03
6:21 am 06:21 Cloudy with Light Snow 32 0 32 0 100 100 NNE 5 7 29.74 1007 2 3 0.00 0.03
6:56 am 06:56 Cloudy with Light Snow 32 0 32 0 100 100 NNE 6 9 29.72 1006 2 3 0.01 0.25
7:08 am 07:08 Cloudy with Light Wintry Mix 32 0 32 0 100 100 NNE 5 7 29.71 1006 3 5 0.00 0.03
7:19 am 07:19 Cloudy with Light Snow 32 0 32 0 100 100 NNE 6 9 29.71 1006 2 3 0.00 0.03
7:27 am 07:27 Cloudy with Light Snow 32 0 32 0 100 100 NNE 6 9 29.71 1006 2 2 0.00 0.03
7:56 am 07:56 Cloudy with Light Snow 32 0 32 0 100 100 NNE 7 11 29.70 1006 2 3 0.01 0.25
8:56 am 08:56 Cloudy with Light Snow 32 0 32 0 100 100 N 10 17 29.68 1005 2 2 0.02 0.51
9:54 am 09:54 Cloudy with Light Snow 30 -1 30 -1 100 100 N 16 26 29.68 1005 1 1 0.02 0.51
9:55 am 09:55 Cloudy with Light Snow 31 -0.6 31 -0.6 100 100 N 16 26 29.67 1005 1 1 0.02 0.51
10:08 am 10:08 Cloudy with Light Snow 30 -1 30 -1 100 100 N 17 28 29.65 1004 1 1 0.00 0.03
10:21 am 10:21 Cloudy with Light Snow 30 -1 28 -2 93 93 N 18 30 29.65 1004 1 2 0.00 0.03
10:39 am 10:39 Cloudy with Light Snow 28 -2 27 -3 93 93 N 16 26 29.65 1004 1 2 0.00 0.03
12:05 pm 12:05 Windy with Snow Likely 27 -3 25 -4 93 93 N 20 31 29.62 1003 1 2 0.00 0.03
12:13 pm 12:13 Cloudy with Light Snow 27 -3 23 -5 86 86 N 17 28 29.62 1003 1 1 0.00 0.03
12:30 pm 12:30 Windy with Snow Likely 27 -3 23 -5 86 86 N 20 31 29.59 1002 1 2 0.00 0.03
12:49 pm 12:49 Windy with Snow Likely 25 -4 21 -6 86 86 N 23 37 29.62 1003 1 2 0.00 0.03
12:56 pm 12:56 Windy with Snow Likely 24 -4.4 22 -5.6 91 91 N 21 33 29.59 1002 1 2 0.00 0.03
1:10 pm 13:10 Windy with Snow Likely 25 -4 21 -6 86 86 N 20 31 29.62 1003 1 1 0.00 0.03
1:20 pm 13:20 Cloudy with Snow 25 -4 21 -6 86 86 N 18 30 29.62 1003 1 1 0.00 0.03
1:35 pm 13:35 Windy with Snow Likely 23 -5 21 -6 93 93 N 21 33 29.59 1002 1 1 0.00 0.03
1:56 pm 13:56 Windy with Snow Likely 22 -5.6 20 -6.7 92 92 N 23 37 29.57 1002 1 1 0.00 0.03
2:12 pm 14:12 Windy with Snow Likely 21 -6 19 -7 93 93 N 22 35 29.62 1003 1 1 0.00 0.03
2:29 pm 14:29 Cloudy with Snow 21 -6 19 -7 93 93 N 26 43 29.62 1003 1 1 0.00 0.03
2:51 pm 14:51 Cloudy with Snow 19 -7 18 -8 93 93 N 24 39 29.62 1003 0 0 0.00 0.03
2:56 pm 14:56 Cloudy with Snow 20 -6.7 17 -8.3 89 89 N 22 35 29.59 1002 0 0 0.00 0.03
3:56 pm 15:56 Cloudy with Snow 18 -7.8 16 -8.9 92 92 N 26 43 29.60 1002 0 0 0.00 0.03
4:05 pm 16:05 Cloudy with Snow 18 -8 16 -9 93 93 N 28 44 29.62 1003 1 1 0.00 0.03
4:17 pm 16:17 Windy with Snow Likely 18 -8 16 -9 93 93 NNW 25 41 29.62 1003 1 1 0.00 0.03
4:33 pm 16:33 Windy with Snow Likely 18 -8 16 -9 93 93 N 26 43 29.68 1005 1 1 0.00 0.03
4:56 pm 16:56 Windy with Snow Likely 18 -7.8 15 -9.4 88 88 NNW 24 39 29.64 1004 1 2 0.00 0.03
5:19 pm 17:19 Windy with Snow Likely 18 -8 16 -9 93 93 NNW 24 39 29.71 1006 1 2 0.00 0.03
5:44 pm 17:44 Windy with Snow Likely 18 -8 14 -10 86 86 NNW 20 31 29.74 1007 2 2 0.00 0.03
5:51 pm 17:51 Windy with Snow Likely 18 -8 14 -10 86 86 NNW 21 33 29.74 1007 2 2 0.00 0.03
5:56 pm 17:56 Windy with Snow Likely 16 -8.9 14 -10 92 92 NNW 21 33 29.69 1006 1 2 0.00 0.03
6:14 pm 18:14 Cloudy with Light Snow 16 -9 14 -10 93 93 NNW 17 28 29.74 1007 1 2 0.00 0.03
6:21 pm 18:21 Cloudy with Light Snow 16 -9 14 -10 93 93 NNW 18 30 29.74 1007 1 1 0.00 0.03
6:29 pm 18:29 Windy with Snow Likely 16 -9 12 -11 86 86 NNW 20 31 29.74 1007 1 1 0.00 0.03
6:53 pm 18:53 Cloudy with Snow 16 -9 12 -11 86 86 NNW 17 28 29.77 1008 1 1 0.00 0.03
6:56 pm 18:56 Cloudy with Snow 15 -9.4 13 -10.6 91 91 NNW 20 31 29.71 1006 1 1 0.00 0.03
7:05 pm 19:05 Windy with Snow Likely 16 -9 12 -11 86 86 NNW 21 33 29.77 1008 1 1 0.00 0.03
7:31 pm 19:31 Windy with Snow Likely 16 -9 12 -11 86 86 NNW 21 33 29.77 1008 1 2 0.00 0.03
7:48 pm 19:48 Windy with Snow Likely 16 -9 12 -11 86 86 NNW 25 41 29.77 1008 2 3 0.00 0.03
7:56 pm 19:56 Windy with Snow Likely 15 -9.4 12 -11.1 88 88 NNW 25 41 29.72 1007 2 3 0.00 0.03
8:56 pm 20:56 Windy with Snow Likely 15 -9.4 12 -11.1 88 88 N 29 46 29.74 1007 3 4 0.00 0.03
9:35 pm 21:35 Windy with Snow Likely 14 -10 10 -12 85 85 N 25 41 29.80 1009 2 2 0.00 0.03
9:56 pm 21:56 Windy with Snow Likely 14 -10 12 -11.1 92 92 N 28 44 29.76 1008 1 2 0.00 0.03
10:12 pm 22:12 Windy with Snow Likely 14 -10 10 -12 85 85 N 29 46 29.83 1010 1 2 0.00 0.03
10:24 pm 22:24 Windy with Snow Likely 14 -10 10 -12 85 85 NNW 25 41 29.83 1010 1 2 0.00 0.03
10:56 pm 22:56 Windy with Snow Likely 13 -10.6 10 -12.2 88 88 NNW 25 41 29.82 1010 2 3 0.00 0.03
11:06 pm 23:06 Windy with Snow Likely 12 -11 10 -12 92 92 NNW 23 37 29.88 1012 2 3 0.00 0.03
11:31 pm 23:31 Windy with Snow Likely 12 -11 9 -13 85 85 NNW 21 33 29.88 1012 2 3 0.00 0.03
11:49 pm 23:49 Windy with Snow Likely 12 -11 9 -13 85 85 NNW 24 39 29.88 1012 2 2 0.00 0.03
11:56 pm 23:56 Windy with Snow Likely 12 -11.1 9 -12.8 87 87 NNW 23 37 29.87 1012 2 2 0.00 0.03

Powered by AerisWeather